SHT18K EGLL-EGPD

Flight info

Callsign SHT18K
Flight time 1h 1m
Altitude 37000
Route ULTIB T420 AKUPA UY250 KEFTE DCT AGPED/N0440F370 DCT MADAD/N0396F240 P18 EPCAN
Aircraft A320/M-SDE3FGHIRWY/LB1

Departure

Time 2026-05-07 06:49
Airport London Heathrow Airport (EGLL)

Arrival

Time 2026-05-07 07:51
Airport Aberdeen International Airport (EGPD)
Time Latitude Longitude Altitude Speed Heading
2026-05-07 06:01 51.46929 -0.48576 87 ft 0 kts 360°
2026-05-07 06:40 51.46907 -0.48577 88 ft 4 kts 12°
2026-05-07 06:40 51.46883 -0.48592 89 ft 4 kts 52°
2026-05-07 06:40 51.46877 -0.48614 89 ft 1 kts 89°
2026-05-07 06:44 51.46877 -0.48600 88 ft 3 kts 90°
2026-05-07 06:45 51.46877 -0.48549 88 ft 6 kts 90°
2026-05-07 06:45 51.46855 -0.48479 87 ft 8 kts 148°
2026-05-07 06:45 51.46800 -0.48471 90 ft 8 kts 179°
2026-05-07 06:45 51.46762 -0.48479 87 ft 5 kts 203°
2026-05-07 06:46 51.46741 -0.48540 89 ft 8 kts 266°
2026-05-07 06:46 51.46741 -0.48647 87 ft 11 kts 270°
2026-05-07 06:46 51.46730 -0.48729 89 ft 8 kts 231°
2026-05-07 06:46 51.46668 -0.48750 87 ft 11 kts 180°
2026-05-07 06:47 51.46592 -0.48774 89 ft 11 kts 198°
2026-05-07 06:47 51.46516 -0.48780 91 ft 11 kts 159°
2026-05-07 06:47 51.46478 -0.48701 89 ft 8 kts 103°
2026-05-07 06:47 51.46477 -0.48667 88 ft 0 kts 89°
2026-05-07 06:48 51.46477 -0.48665 88 ft 1 kts 89°
2026-05-07 06:49 51.46478 -0.48374 89 ft 63 kts 90°
2026-05-07 06:49 51.46481 -0.47304 87 ft 126 kts 90°
2026-05-07 06:49 51.46488 -0.45655 234 ft 158 kts 89°
2026-05-07 06:49 51.46502 -0.43906 998 ft 156 kts 89°
2026-05-07 06:50 51.46539 -0.42134 1620 ft 165 kts 83°
2026-05-07 06:50 51.46985 -0.40319 1959 ft 190 kts 54°
2026-05-07 06:50 51.47890 -0.38577 2332 ft 216 kts 51°
2026-05-07 06:50 51.48909 -0.36633 2853 ft 240 kts 51°
2026-05-07 06:51 51.50025 -0.34496 3545 ft 256 kts 50°
2026-05-07 06:51 51.51171 -0.32300 4492 ft 263 kts 50°
2026-05-07 06:51 51.52268 -0.29919 5442 ft 269 kts 63°
2026-05-07 06:51 51.52974 -0.27099 5860 ft 273 kts 69°
2026-05-07 06:52 51.54017 -0.24555 6399 ft 277 kts 43°
2026-05-07 06:52 51.55659 -0.22923 7339 ft 281 kts 19°
2026-05-07 06:52 51.57587 -0.22521 8260 ft 283 kts 352°
2026-05-07 06:52 51.59501 -0.23330 9219 ft 285 kts 343°
2026-05-07 06:53 51.61021 -0.23952 9987 ft 286 kts 344°
2026-05-07 06:53 51.62887 -0.25111 10816 ft 290 kts 333°
2026-05-07 06:53 51.64749 -0.26686 11118 ft 314 kts 330°
2026-05-07 06:53 51.66685 -0.28458 11469 ft 332 kts 329°
2026-05-07 06:54 51.68695 -0.30385 12140 ft 339 kts 328°
2026-05-07 06:54 51.70722 -0.32364 12890 ft 343 kts 328°
2026-05-07 06:54 51.72774 -0.34374 13669 ft 347 kts 328°
2026-05-07 06:54 51.74854 -0.36405 14358 ft 351 kts 328°
2026-05-07 06:55 51.76953 -0.38447 15034 ft 354 kts 328°
2026-05-07 06:55 51.79080 -0.40508 15696 ft 358 kts 328°
2026-05-07 06:55 51.81224 -0.42581 16352 ft 362 kts 328°
2026-05-07 06:55 51.83396 -0.44682 17009 ft 365 kts 328°
2026-05-07 06:56 51.85586 -0.46806 17685 ft 369 kts 328°
2026-05-07 06:56 51.87806 -0.48958 18336 ft 373 kts 328°
2026-05-07 06:56 51.90041 -0.51128 18934 ft 377 kts 328°
2026-05-07 06:56 51.92296 -0.53325 19547 ft 380 kts 328°
2026-05-07 06:57 51.94578 -0.55554 20172 ft 384 kts 328°
2026-05-07 06:57 51.96874 -0.57798 20772 ft 387 kts 328°
2026-05-07 06:57 51.99164 -0.60042 21357 ft 391 kts 328°
2026-05-07 06:57 52.01506 -0.62342 21938 ft 394 kts 328°
2026-05-07 06:58 52.03861 -0.64656 22499 ft 398 kts 328°
2026-05-07 06:58 52.06248 -0.67001 23066 ft 402 kts 329°
2026-05-07 06:58 52.08652 -0.69364 23601 ft 405 kts 329°
2026-05-07 06:58 52.11078 -0.71748 24056 ft 409 kts 329°
2026-05-07 06:59 52.13526 -0.74151 24511 ft 412 kts 329°
2026-05-07 06:59 52.15990 -0.76573 24959 ft 415 kts 329°
2026-05-07 06:59 52.18437 -0.78986 25425 ft 417 kts 329°
2026-05-07 06:59 52.20956 -0.81481 25870 ft 419 kts 329°
2026-05-07 07:00 52.23454 -0.83961 26292 ft 422 kts 329°
2026-05-07 07:00 52.25934 -0.86427 26723 ft 424 kts 329°
2026-05-07 07:00 52.28499 -0.88976 27153 ft 427 kts 329°
2026-05-07 07:00 52.31008 -0.91467 27577 ft 429 kts 330°
2026-05-07 07:01 52.33570 -0.94010 27997 ft 432 kts 330°
2026-05-07 07:01 52.36139 -0.96568 28409 ft 434 kts 330°
2026-05-07 07:01 52.38733 -0.99154 28806 ft 437 kts 330°
2026-05-07 07:01 52.41334 -1.01754 29207 ft 439 kts 330°
2026-05-07 07:02 52.43949 -1.04370 29577 ft 441 kts 331°
2026-05-07 07:02 52.46702 -1.06593 29946 ft 442 kts 340°
2026-05-07 07:02 52.49645 -1.08045 30281 ft 442 kts 350°
2026-05-07 07:02 52.52697 -1.08688 30590 ft 442 kts 359°
2026-05-07 07:03 52.55778 -1.08584 30904 ft 443 kts
2026-05-07 07:03 52.57818 -1.08419 31114 ft 445 kts
2026-05-07 07:03 52.61908 -1.08106 31688 ft 443 kts
2026-05-07 07:03 52.64982 -1.07880 32152 ft 442 kts
2026-05-07 07:04 52.68049 -1.07657 32605 ft 440 kts
2026-05-07 07:04 52.71110 -1.07433 33117 ft 439 kts
2026-05-07 07:04 52.74167 -1.07420 33575 ft 440 kts 358°
2026-05-07 07:04 52.76220 -1.07835 33889 ft 441 kts 352°
2026-05-07 07:05 52.80207 -1.09052 34431 ft 440 kts 352°
2026-05-07 07:05 52.82240 -1.09673 34682 ft 440 kts 351°
2026-05-07 07:05 52.85212 -1.10583 35036 ft 440 kts 351°
2026-05-07 07:05 52.88222 -1.11506 35371 ft 440 kts 351°
2026-05-07 07:06 52.91233 -1.12426 35694 ft 441 kts 351°
2026-05-07 07:06 52.94222 -1.13332 36015 ft 441 kts 351°
2026-05-07 07:06 52.97237 -1.14245 36328 ft 441 kts 351°
2026-05-07 07:06 53.00268 -1.15164 36632 ft 442 kts 350°
2026-05-07 07:07 53.03293 -1.16087 36931 ft 442 kts 350°
2026-05-07 07:07 53.06327 -1.17017 37066 ft 444 kts 350°
2026-05-07 07:07 53.12396 -1.18891 37080 ft 444 kts 350°
2026-05-07 07:08 53.18468 -1.20768 37079 ft 444 kts 350°
2026-05-07 07:08 53.24541 -1.22646 37078 ft 443 kts 350°
2026-05-07 07:09 53.30602 -1.24519 37079 ft 443 kts 350°
2026-05-07 07:09 53.36676 -1.26406 37081 ft 444 kts 349°
2026-05-07 07:10 53.42764 -1.28134 37088 ft 444 kts 356°
2026-05-07 07:10 53.48881 -1.28870 37087 ft 444 kts 356°
2026-05-07 07:11 53.55049 -1.29650 37089 ft 444 kts 352°
2026-05-07 07:11 53.60949 -1.32529 37088 ft 443 kts 334°
2026-05-07 07:12 53.66281 -1.37766 37083 ft 444 kts 329°
2026-05-07 07:12 53.71582 -1.43144 37078 ft 444 kts 329°
2026-05-07 07:13 53.76846 -1.48475 37077 ft 444 kts 329°
2026-05-07 07:13 53.82147 -1.53871 37078 ft 444 kts 328°
2026-05-07 07:14 53.87440 -1.59289 37075 ft 444 kts 328°
2026-05-07 07:14 53.92723 -1.64722 37076 ft 444 kts 328°
2026-05-07 07:15 53.98009 -1.70177 37077 ft 444 kts 328°
2026-05-07 07:15 54.03665 -1.74312 37081 ft 444 kts 346°
2026-05-07 07:16 54.09785 -1.75730 37083 ft 444 kts 353°
2026-05-07 07:16 54.15937 -1.76853 37099 ft 444 kts 353°
2026-05-07 07:17 54.22044 -1.77981 37103 ft 444 kts 353°
2026-05-07 07:17 54.28185 -1.79118 37102 ft 443 kts 353°
2026-05-07 07:18 54.34322 -1.80252 37102 ft 443 kts 353°
2026-05-07 07:18 54.40448 -1.81380 37100 ft 443 kts 353°
2026-05-07 07:19 54.46570 -1.82523 37094 ft 442 kts 353°
2026-05-07 07:19 54.52692 -1.83660 37092 ft 442 kts 353°
2026-05-07 07:20 54.58810 -1.84792 37087 ft 442 kts 353°
2026-05-07 07:20 54.64919 -1.85936 37083 ft 442 kts 353°
2026-05-07 07:21 54.71034 -1.87083 37082 ft 442 kts 353°
2026-05-07 07:21 54.76993 -1.88215 37078 ft 442 kts 352°
2026-05-07 07:22 54.83110 -1.89378 37082 ft 442 kts 352°
2026-05-07 07:22 54.89221 -1.90535 37081 ft 441 kts 352°
2026-05-07 07:23 54.95332 -1.91701 37082 ft 441 kts 352°
2026-05-07 07:23 55.01439 -1.92872 37082 ft 441 kts 352°
2026-05-07 07:24 55.07537 -1.94036 37075 ft 441 kts 352°
2026-05-07 07:24 55.13665 -1.94496 37077 ft 443 kts
2026-05-07 07:25 55.22820 -1.92065 37072 ft 444 kts
2026-05-07 07:26 55.28930 -1.90439 37072 ft 444 kts
2026-05-07 07:26 55.35045 -1.88793 37069 ft 445 kts
2026-05-07 07:27 55.41129 -1.87160 37065 ft 445 kts
2026-05-07 07:27 55.47260 -1.85507 37061 ft 445 kts
2026-05-07 07:28 55.53383 -1.83843 37063 ft 445 kts
2026-05-07 07:28 55.59512 -1.82174 37057 ft 446 kts
2026-05-07 07:29 55.65649 -1.80495 36524 ft 449 kts
2026-05-07 07:29 55.68746 -1.79645 35738 ft 451 kts
2026-05-07 07:29 55.71852 -1.78792 34962 ft 452 kts
2026-05-07 07:29 55.74973 -1.77934 34121 ft 455 kts
2026-05-07 07:30 55.78116 -1.77067 33168 ft 457 kts
2026-05-07 07:30 55.81263 -1.76198 32264 ft 458 kts
2026-05-07 07:30 55.84388 -1.75331 31754 ft 451 kts
2026-05-07 07:30 55.87479 -1.74471 31155 ft 447 kts
2026-05-07 07:31 55.90548 -1.73972 30572 ft 440 kts 357°
2026-05-07 07:31 55.93577 -1.74288 29988 ft 432 kts 348°
2026-05-07 07:31 55.96465 -1.75280 29403 ft 425 kts 345°
2026-05-07 07:31 55.99346 -1.76362 28852 ft 420 kts 345°
2026-05-07 07:32 56.02187 -1.77416 28285 ft 415 kts 345°
2026-05-07 07:32 56.05003 -1.78452 27767 ft 410 kts 345°
2026-05-07 07:32 56.07786 -1.79476 27238 ft 406 kts 345°
2026-05-07 07:32 56.10540 -1.80494 26706 ft 402 kts 345°
2026-05-07 07:33 56.13273 -1.81510 26201 ft 399 kts 345°
2026-05-07 07:33 56.15982 -1.82520 25690 ft 396 kts 345°
2026-05-07 07:33 56.18671 -1.83524 25190 ft 394 kts 345°
2026-05-07 07:33 56.21348 -1.84523 24694 ft 392 kts 345°
2026-05-07 07:34 56.24015 -1.85517 24219 ft 390 kts 344°
2026-05-07 07:34 56.26665 -1.86508 23745 ft 388 kts 344°
2026-05-07 07:34 56.29308 -1.87500 23227 ft 387 kts 344°
2026-05-07 07:34 56.31932 -1.88484 22768 ft 383 kts 344°
2026-05-07 07:35 56.34527 -1.89457 22313 ft 380 kts 344°
2026-05-07 07:35 56.37102 -1.90426 21834 ft 376 kts 344°
2026-05-07 07:35 56.39623 -1.91369 21392 ft 373 kts 344°
2026-05-07 07:35 56.42156 -1.92319 20911 ft 370 kts 344°
2026-05-07 07:36 56.44664 -1.93267 20437 ft 367 kts 344°
2026-05-07 07:36 56.47163 -1.94218 19939 ft 365 kts 343°
2026-05-07 07:36 56.49635 -1.95165 19457 ft 362 kts 343°
2026-05-07 07:36 56.52100 -1.96106 18952 ft 360 kts 343°
2026-05-07 07:37 56.54546 -1.97036 18455 ft 359 kts 343°
2026-05-07 07:37 56.56985 -1.97961 17899 ft 357 kts 343°
2026-05-07 07:37 56.59404 -1.98878 17392 ft 354 kts 344°
2026-05-07 07:37 56.61807 -1.99791 16894 ft 351 kts 344°
2026-05-07 07:38 56.64188 -2.00697 16398 ft 348 kts 344°
2026-05-07 07:38 56.66552 -2.01598 15904 ft 346 kts 344°
2026-05-07 07:38 56.68902 -2.02500 15413 ft 344 kts 344°
2026-05-07 07:38 56.71209 -2.03388 14927 ft 343 kts 344°
2026-05-07 07:39 56.73538 -2.04283 14439 ft 342 kts 345°
2026-05-07 07:39 56.75862 -2.05172 13945 ft 341 kts 345°
2026-05-07 07:39 56.78187 -2.06063 13418 ft 340 kts 345°
2026-05-07 07:39 56.80500 -2.06954 12923 ft 338 kts 345°
2026-05-07 07:40 56.82791 -2.07840 12439 ft 336 kts 345°
2026-05-07 07:40 56.85071 -2.08730 11959 ft 334 kts 343°
2026-05-07 07:40 56.86537 -2.09561 11650 ft 332 kts 336°
2026-05-07 07:40 56.89043 -2.11331 11117 ft 330 kts 335°
2026-05-07 07:41 56.91171 -2.12876 10722 ft 326 kts 335°
2026-05-07 07:41 56.93238 -2.14381 10598 ft 313 kts 335°
2026-05-07 07:41 56.95231 -2.15826 10478 ft 302 kts 335°
2026-05-07 07:41 56.97156 -2.17216 10270 ft 295 kts 335°
2026-05-07 07:42 56.99055 -2.18590 9962 ft 292 kts 335°
2026-05-07 07:42 57.00938 -2.19959 9617 ft 291 kts 335°
2026-05-07 07:42 57.02787 -2.21309 9263 ft 290 kts 335°
2026-05-07 07:42 57.04658 -2.22681 8895 ft 289 kts 335°
2026-05-07 07:43 57.06525 -2.24050 8554 ft 288 kts 335°
2026-05-07 07:43 57.08381 -2.25417 8211 ft 287 kts 335°
2026-05-07 07:43 57.10232 -2.26786 7871 ft 286 kts 335°
2026-05-07 07:43 57.12075 -2.28147 7529 ft 285 kts 335°
2026-05-07 07:44 57.13917 -2.29507 7202 ft 285 kts 335°
2026-05-07 07:44 57.15753 -2.30870 6855 ft 284 kts 335°
2026-05-07 07:44 57.17585 -2.32229 6534 ft 283 kts 335°
2026-05-07 07:44 57.19415 -2.33587 6166 ft 282 kts 335°
2026-05-07 07:45 57.21236 -2.34935 5815 ft 281 kts 335°
2026-05-07 07:45 57.23020 -2.36256 5448 ft 281 kts 335°
2026-05-07 07:45 57.24791 -2.37575 5086 ft 273 kts 335°
2026-05-07 07:45 57.26525 -2.38867 4726 ft 263 kts 335°
2026-05-07 07:46 57.28202 -2.40114 4304 ft 256 kts 334°
2026-05-07 07:46 57.29878 -2.41028 3990 ft 247 kts 352°
2026-05-07 07:46 57.31573 -2.40708 3756 ft 246 kts 18°
2026-05-07 07:46 57.33020 -2.39135 3539 ft 239 kts 46°
2026-05-07 07:47 57.33949 -2.36691 3341 ft 229 kts 72°
2026-05-07 07:47 57.34238 -2.33941 3145 ft 215 kts 99°
2026-05-07 07:47 57.33863 -2.31398 3002 ft 199 kts 125°
2026-05-07 07:47 57.33012 -2.29518 2830 ft 186 kts 148°
2026-05-07 07:48 57.31885 -2.28442 2616 ft 180 kts 162°
2026-05-07 07:48 57.30813 -2.27647 2420 ft 176 kts 162°
2026-05-07 07:48 57.29717 -2.26831 2161 ft 166 kts 161°
2026-05-07 07:48 57.28690 -2.26067 1930 ft 151 kts 161°
2026-05-07 07:49 57.27779 -2.25391 1752 ft 133 kts 161°
2026-05-07 07:49 57.26950 -2.24780 1569 ft 125 kts 161°
2026-05-07 07:49 57.26146 -2.24190 1417 ft 123 kts 161°
2026-05-07 07:49 57.25356 -2.23603 1223 ft 122 kts 160°
2026-05-07 07:50 57.24581 -2.23030 1035 ft 121 kts 159°
2026-05-07 07:50 57.23795 -2.22438 855 ft 122 kts 160°
2026-05-07 07:50 57.23009 -2.21856 694 ft 121 kts 160°
2026-05-07 07:50 57.22224 -2.21279 511 ft 121 kts 160°
2026-05-07 07:51 57.21443 -2.20693 381 ft 121 kts 159°
2026-05-07 07:51 57.20667 -2.20125 255 ft 115 kts 159°
2026-05-07 07:51 57.20125 -2.19727 249 ft 42 kts 158°
2026-05-07 07:51 57.20049 -2.19671 250 ft 5 kts 158°
2026-05-07 07:52 57.19986 -2.19625 250 ft 13 kts 158°
2026-05-07 07:52 57.19889 -2.19553 251 ft 16 kts 158°
2026-05-07 07:52 57.19785 -2.19477 250 ft 17 kts 159°
2026-05-07 07:52 57.19673 -2.19394 250 ft 18 kts 158°
2026-05-07 07:53 57.19550 -2.19304 247 ft 20 kts 158°
2026-05-07 07:53 57.19466 -2.19244 247 ft 7 kts 169°
2026-05-07 07:53 57.19427 -2.19306 247 ft 9 kts 257°
2026-05-07 07:53 57.19462 -2.19417 247 ft 12 kts 319°
2026-05-07 07:54 57.19533 -2.19532 247 ft 15 kts 319°
2026-05-07 07:54 57.19621 -2.19671 247 ft 18 kts 323°
2026-05-07 07:54 57.19695 -2.19732 247 ft 18 kts 339°
2026-05-07 07:54 57.19812 -2.19818 247 ft 15 kts 338°
2026-05-07 07:55 57.19920 -2.19956 247 ft 16 kts 316°
2026-05-07 07:55 57.19971 -2.20044 247 ft 11 kts 320°
2026-05-07 07:55 57.20045 -2.20107 247 ft 13 kts 338°
2026-05-07 07:55 57.20137 -2.20175 247 ft 10 kts 338°
2026-05-07 07:56 57.20154 -2.20218 247 ft 5 kts 275°
2026-05-07 07:56 57.20144 -2.20273 247 ft 3 kts 248°
2026-05-07 07:56 57.20139 -2.20296 247 ft 2 kts 248°
2026-05-07 07:56 57.20135 -2.20311 247 ft 1 kts 248°
2026-05-07 07:57 57.20135 -2.20312 247 ft 0 kts 248°